{"data":{"norad_id":49307,"epoch":"2026-09-19T22:20:12.447168Z","epoch_age_seconds":76308,"freshness":"FRESH","line1":"1 49307U 21090AE  26262.93069962  .00000110  00000+0  23905-3 0  9990","line2":"2 49307  87.9139 255.5401 0002189  93.0777 267.0607 13.20772611242339","mean_motion":13.20772611,"eccentricity":0.0002189,"inclination_deg":87.9139,"raan_deg":255.5401,"arg_perigee_deg":93.0777,"mean_anomaly_deg":267.0607,"bstar":0.00023905,"rev_number":24233,"period_min":109.02709429367,"perigee_km":1180.1154636733,"apogee_km":1183.4251911012,"semimajor_km":7559.9073273872,"source":"CELESTRAK","updated_at":"2026-09-20T09:00:44.674693Z"}}